TimeMST,TemperatureF,Dew PointF,Humidity,Sea Level PressureIn,VisibilityMPH,Wind Direction,Wind SpeedMPH,Gust SpeedMPH,PrecipitationIn,Events,Conditions,WindDirDegrees,DateUTC
12:15 AM,30.2,23.0,75,-9999,10.0,SSW,4.6,-,N/A,,Clear,210,2013-03-03 07:15:00
12:35 AM,32.0,21.2,64,-9999,10.0,SSW,4.6,-,N/A,,Clear,200,2013-03-03 07:35:00
12:55 AM,32.0,21.2,64,-9999,10.0,SW,3.5,-,N/A,,Clear,220,2013-03-03 07:55:00
1:15 AM,30.2,21.2,69,-9999,10.0,SSW,3.5,-,N/A,,Clear,210,2013-03-03 08:15:00
1:35 AM,30.2,23.0,75,-9999,10.0,Calm,Calm,-,N/A,,Clear,0,2013-03-03 08:35:00
1:55 AM,30.2,23.0,75,-9999,10.0,South,4.6,-,N/A,,Clear,170,2013-03-03 08:55:00
2:15 AM,30.2,21.2,69,-9999,10.0,South,3.5,-,N/A,,Clear,180,2013-03-03 09:15:00
2:35 AM,28.4,21.2,74,-9999,10.0,SSW,3.5,-,N/A,,Clear,200,2013-03-03 09:35:00
2:55 AM,30.2,21.2,69,-9999,10.0,SSE,8.1,-,N/A,,Clear,160,2013-03-03 09:55:00
3:15 AM,28.4,23.0,80,-9999,10.0,South,3.5,-,N/A,,Clear,180,2013-03-03 10:15:00
3:35 AM,28.4,23.0,80,-9999,10.0,SSE,3.5,-,N/A,,Clear,160,2013-03-03 10:35:00
3:55 AM,28.4,23.0,80,-9999,10.0,ESE,4.6,-,N/A,,Clear,110,2013-03-03 10:55:00
4:15 AM,28.4,23.0,80,-9999,10.0,SE,4.6,-,N/A,,Clear,140,2013-03-03 11:15:00
4:35 AM,30.2,21.2,69,-9999,10.0,Calm,Calm,-,N/A,,Clear,0,2013-03-03 11:35:00
4:55 AM,28.4,21.2,74,-9999,10.0,SSE,3.5,-,N/A,,Clear,150,2013-03-03 11:55:00
5:15 AM,30.2,21.2,69,-9999,10.0,South,5.8,-,N/A,,Clear,180,2013-03-03 12:15:00
5:35 AM,28.4,21.2,74,-9999,10.0,Calm,Calm,-,N/A,,Clear,0,2013-03-03 12:35:00
6:15 AM,26.6,23.0,86,-9999,10.0,Calm,Calm,-,N/A,,Overcast,0,2013-03-03 13:15:00
6:35 AM,28.4,23.0,80,-9999,10.0,SSE,3.5,-,N/A,,Overcast,160,2013-03-03 13:35:00
6:55 AM,30.2,23.0,75,-9999,10.0,SSE,4.6,-,N/A,,Overcast,160,2013-03-03 13:55:00
7:15 AM,28.4,23.0,80,-9999,10.0,SE,5.8,-,N/A,,Mostly Cloudy,130,2013-03-03 14:15:00
7:35 AM,30.2,23.0,75,-9999,10.0,Calm,Calm,-,N/A,,Overcast,0,2013-03-03 14:35:00
7:55 AM,30.2,24.8,80,-9999,10.0,SSE,3.5,-,N/A,,Overcast,150,2013-03-03 14:55:00
8:15 AM,28.4,24.8,86,-9999,10.0,SE,5.8,-,N/A,,Overcast,140,2013-03-03 15:15:00
8:35 AM,28.4,24.8,86,-9999,10.0,SE,10.4,-,N/A,,Overcast,140,2013-03-03 15:35:00
8:55 AM,30.2,26.6,86,-9999,10.0,ESE,8.1,20.7,N/A,,Overcast,110,2013-03-03 15:55:00
9:15 AM,32.0,26.6,80,-9999,10.0,WSW,11.5,18.4,N/A,,Mostly Cloudy,240,2013-03-03 16:15:00
9:35 AM,32.0,26.6,80,-9999,10.0,WSW,15.0,21.9,N/A,,Scattered Clouds,240,2013-03-03 16:35:00
9:55 AM,32.0,28.4,87,-9999,10.0,WSW,13.8,23.0,N/A,,Scattered Clouds,250,2013-03-03 16:55:00
10:15 AM,32.0,28.4,87,-9999,10.0,WSW,21.9,26.5,N/A,,Mostly Cloudy,250,2013-03-03 17:15:00
10:35 AM,32.0,28.4,87,-9999,10.0,WSW,19.6,31.1,N/A,,Mostly Cloudy,250,2013-03-03 17:35:00
10:55 AM,32.0,30.2,93,-9999,10.0,WSW,27.6,34.5,N/A,,Mostly Cloudy,250,2013-03-03 17:55:00
11:15 AM,32.0,30.2,93,-9999,10.0,WSW,28.8,36.8,N/A,,Overcast,240,2013-03-03 18:15:00
11:35 AM,32.0,30.2,93,-9999,10.0,WSW,31.1,38.0,N/A,,Overcast,250,2013-03-03 18:35:00
11:55 AM,32.0,30.2,93,-9999,1.8,WSW,32.2,36.8,N/A,,Overcast,250,2013-03-03 18:55:00
12:15 PM,32.0,30.2,93,-9999,0.8,WSW,28.8,38.0,N/A,Snow,Light Snow,250,2013-03-03 19:15:00
12:35 PM,32.0,32.0,100,-9999,0.8,WSW,25.3,35.7,N/A,Snow,Light Snow,250,2013-03-03 19:35:00
12:55 PM,32.0,30.2,93,-9999,0.5,WSW,20.7,28.8,N/A,Snow,Light Snow,240,2013-03-03 19:55:00
1:15 PM,32.0,32.0,100,-9999,0.2,SW,18.4,26.5,N/A,Snow,Snow,230,2013-03-03 20:15:00
1:35 PM,32.0,32.0,100,-9999,0.5,WSW,17.3,25.3,N/A,Snow,Snow,240,2013-03-03 20:35:00
1:55 PM,32.0,32.0,100,-9999,1.0,WSW,20.7,24.2,N/A,Snow,Light Snow,240,2013-03-03 20:55:00
2:15 PM,32.0,32.0,100,-9999,1.2,WSW,19.6,27.6,N/A,Snow,Light Snow,240,2013-03-03 21:15:00
2:35 PM,32.0,32.0,100,-9999,2.0,WSW,18.4,26.5,N/A,Snow,Light Snow,240,2013-03-03 21:35:00
2:55 PM,32.0,32.0,100,-9999,2.0,WSW,17.3,23.0,N/A,Snow,Light Snow,240,2013-03-03 21:55:00
3:15 PM,32.0,32.0,100,-9999,1.8,WSW,16.1,21.9,N/A,Snow,Light Snow,240,2013-03-03 22:15:00
3:55 PM,32.0,32.0,100,-9999,0.8,WSW,23.0,29.9,N/A,Snow,Light Snow,240,2013-03-03 22:55:00
4:15 PM,32.0,32.0,100,-9999,0.2,WSW,24.2,31.1,N/A,Snow,Heavy Snow,240,2013-03-03 23:15:00
4:35 PM,32.0,30.2,93,-9999,0.2,WSW,25.3,34.5,N/A,Snow,Heavy Snow,250,2013-03-03 23:35:00
4:55 PM,32.0,30.2,93,-9999,0.2,West,25.3,35.7,N/A,Snow,Heavy Snow,260,2013-03-03 23:55:00
5:15 PM,30.2,28.4,93,-9999,0.2,North,-9999.0,-,N/A,Snow,Heavy Snow,0,2013-03-04 00:15:00
5:35 PM,30.2,26.6,86,-9999,0.2,WSW,35.7,44.9,N/A,Snow,Heavy Snow,250,2013-03-04 00:35:00
5:55 PM,30.2,28.4,93,-9999,0.2,West,31.1,41.4,N/A,Snow,Heavy Snow,260,2013-03-04 00:55:00
6:15 PM,30.2,26.6,86,-9999,0.5,West,28.8,39.1,N/A,Snow,Light Snow,260,2013-03-04 01:15:00
6:35 PM,30.2,26.6,86,-9999,1.0,WSW,31.1,41.4,N/A,Snow,Light Snow,250,2013-03-04 01:35:00
6:55 PM,30.2,26.6,86,-9999,1.0,West,32.2,42.6,N/A,Snow,Light Snow,260,2013-03-04 01:55:00
7:15 PM,30.2,24.8,80,-9999,1.8,West,31.1,42.6,N/A,,Haze,260,2013-03-04 02:15:00
7:35 PM,30.2,23.0,75,-9999,3.0,WSW,32.2,39.1,N/A,,Haze,250,2013-03-04 02:35:00
7:55 PM,30.2,23.0,75,-9999,5.0,WSW,31.1,38.0,N/A,,Haze,250,2013-03-04 02:55:00
8:15 PM,28.4,23.0,80,-9999,5.0,WSW,27.6,36.8,N/A,,Haze,250,2013-03-04 03:15:00
8:35 PM,28.4,26.6,93,-9999,2.0,WSW,31.1,39.1,N/A,,Clear,250,2013-03-04 03:35:00
8:55 PM,28.4,24.8,86,-9999,4.0,West,32.2,40.3,N/A,,Clear,260,2013-03-04 03:55:00
9:15 PM,28.4,23.0,80,-9999,5.0,WSW,33.4,40.3,N/A,,Haze,250,2013-03-04 04:15:00
9:35 PM,28.4,21.2,74,-9999,7.0,West,28.8,41.4,N/A,,Clear,260,2013-03-04 04:35:00
9:55 PM,28.4,21.2,74,-9999,7.0,West,24.2,38.0,N/A,,Clear,260,2013-03-04 04:55:00
10:15 PM,28.4,19.4,69,-9999,10.0,WNW,11.5,24.2,N/A,,Clear,300,2013-03-04 05:15:00
10:35 PM,28.4,19.4,69,-9999,10.0,Calm,Calm,-,N/A,,Clear,0,2013-03-04 05:35:00
11:15 PM,28.4,19.4,69,-9999,10.0,North,3.5,-,N/A,,Overcast,360,2013-03-04 06:15:00
11:35 PM,21.2,19.4,93,-9999,10.0,NE,4.6,-,N/A,,Overcast,40,2013-03-04 06:35:00
11:55 PM,21.2,19.4,93,-9999,10.0,Calm,Calm,-,N/A,,Overcast,0,2013-03-04 06:55:00